Cochin International Airp, India

11:48 AM IST on August 27, 2016 (GMT +0530)
Cochin International

Weather History for VOCI - February, 2014

Change the Weather History Date:

Thursday, February 20, 2014

  Actual Average Record
Temperature  
Mean Temperature 81 °F -  
Max Temperature 91 °F - - ()
Min Temperature 71 °F - - ()
Cooling Degree Days 16    
Growing Degree Days 31 (Base 50)    
Moisture  
Dew Point 69 °F    
Average Humidity 72    
Maximum Humidity 88    
Minimum Humidity 46    
Precipitation  
Precipitation 0.00 in - - ()
Sea Level Pressure  
Sea Level Pressure 29.87 in    
Wind  
Wind Speed 2 mph ()    
Max Wind Speed 9 mph    
Max Gust Speed -    
Visibility 3.0 miles    
Events      
T = Trace of Precipitation, MM = Missing Value Source: Averaged Metar Reports

Daily Weather History Graph

Daily Weather History Graph

Search for Another Location

Airport or City:

Trip Planner

Search our weather history database for the weather conditions in past years. The results will help you decide how hot, cold, wet, or windy it might be!

Date:

Astronomy

Feb. 20, 2014 Rise Set
Actual Time 6:42 AM IST 6:33 PM IST
Civil Twilight 6:21 AM IST 6:55 PM IST
Nautical Twilight 5:56 AM IST 7:19 PM IST
Astronomical Twilight 5:31 AM IST 7:44 PM IST
Moon 10:53 PM IST (2/20) 10:09 AM IST (2/20)
Length of Visible Light 12h 33m
Length of Day
11h 51m
Waning Gibbous, 75% of the Moon is Illuminated
Feb 20
Waning Gibbous
Feb 22
Last Quarter
Mar 1
New
Mar 8
First Quarter
Mar 16
Full

Hourly Weather History & Observations

Time (IST) Temp. Heat Index Dew Point Humidity Pressure Visibility Wind Dir Wind Speed Gust Speed Precip Events Conditions
12:30 AM 75.2 °F - 68.0 °F 78% 29.86 in 3.1 mi SSE 3.5 mph - N/A   Haze
1:30 AM 73.4 °F - 69.8 °F 88% 29.86 in 3.1 mi NW 3.5 mph - N/A   Haze
2:30 AM 73.4 °F - 68.0 °F 83% 29.86 in 3.1 mi Calm Calm - N/A   Haze
3:30 AM 73.4 °F - 69.8 °F 88% 29.83 in 3.1 mi Calm Calm - N/A   Haze
4:30 AM 71.6 °F - 68.0 °F 88% 29.83 in 3.1 mi Calm Calm - N/A   Haze
5:30 AM 73.4 °F - 68.0 °F 83% 29.86 in 3.1 mi Calm Calm - N/A   Haze
6:30 AM 71.6 °F - 68.0 °F 88% 29.86 in 2.5 mi Calm Calm - N/A   Haze
7:30 AM 73.4 °F - 68.0 °F 83% 29.89 in 2.5 mi Calm Calm - N/A   Haze
8:30 AM 75.2 °F - 69.8 °F 83% 29.92 in 2.5 mi Calm Calm - N/A   Haze
10:30 AM 84.2 °F 88.4 °F 69.8 °F 62% 29.92 in 3.1 mi Calm Calm - N/A   Haze
11:30 AM 87.8 °F 92.6 °F 69.8 °F 55% 29.89 in 3.1 mi Variable 4.6 mph - N/A   Haze
12:30 PM 91.4 °F 95.4 °F 68.0 °F 46% 29.86 in 3.1 mi SSW 4.6 mph - N/A   Haze
1:30 PM 91.4 °F 95.4 °F 68.0 °F 46% 29.83 in 3.1 mi SE 3.5 mph - N/A   Haze
2:30 PM 89.6 °F 93.4 °F 68.0 °F 49% 29.80 in 3.1 mi West 6.9 mph - N/A   Haze
3:30 PM 87.8 °F 93.8 °F 71.6 °F 58% 29.80 in 3.1 mi West 9.2 mph - N/A   Haze
4:30 PM 86.0 °F 90.4 °F 69.8 °F 58% 29.80 in 3.1 mi West 5.8 mph - N/A   Haze
6:30 PM 82.4 °F 87.2 °F 71.6 °F 70% 29.83 in 3.1 mi WNW 5.8 mph - N/A   Haze
7:30 PM 80.6 °F 84.6 °F 71.6 °F 74% 29.86 in 3.1 mi NW 3.5 mph - N/A   Haze
8:30 PM 78.8 °F - 69.8 °F 74% 29.89 in 3.1 mi Calm Calm - N/A   Haze
9:30 PM 78.8 °F - 69.8 °F 74% 29.92 in 3.1 mi Calm Calm - N/A   Haze
10:30 PM 77.0 °F - 69.8 °F 78% 29.95 in 3.1 mi WNW 2.3 mph - N/A   Haze
11:30 PM 77.0 °F - 69.8 °F 78% 29.95 in 3.1 mi Calm Calm - N/A   Haze